Location: Mentone
(34.5413°N, 85.5351°W)
Time: 10:09:46
(UTC-05:00)

Uosat F - Visible Passes

Search period start: 21 October 2014 00:00
Search period end: 31 October 2014 00:00
Orbit: 752 x 761 km, 98.7° (Epoch: 20 October)

Date Brightness Start Highest point End Pass type
(mag) Time Alt. Az. Time Alt. Az. Time Alt. Az.
21 Oct 10.9 05:19:36 10° N 05:24:40 78° WNW 05:29:41 10° SSW visible
22 Oct 12.3 04:40:44 10° NNE 04:45:29 41° E 04:50:13 10° S visible
22 Oct 12.3 06:20:21 10° NNW 06:23:56 20° WNW 06:27:31 10° WSW visible
23 Oct 13.8 04:03:03 10° NE 04:06:07 16° E 04:09:09 10° SE visible
23 Oct 11.3 05:40:15 10° N 05:45:06 48° WNW 05:49:55 10° SW visible
24 Oct 11.4 05:01:00 10° NNE 05:06:02 67° ESE 05:11:02 10° S visible
25 Oct 13.1 04:22:34 10° NE 04:26:45 26° E 04:30:55 10° SSE visible
25 Oct 11.8 06:01:06 10° N 06:05:28 30° WNW 06:09:48 10° SW visible
26 Oct 10.9 05:21:28 10° N 05:26:31 76° WNW 05:31:32 10° SSW visible
27 Oct 12.2 04:42:34 10° NNE 04:47:21 42° E 04:52:05 10° S visible
27 Oct 12.4 06:22:15 10° NNW 06:25:46 19° WNW 06:29:17 10° WSW visible
28 Oct 13.7 04:04:49 10° NE 04:07:58 16° E 04:11:05 10° SE visible
28 Oct 11.3 05:42:07 10° N 05:46:56 46° WNW 05:51:44 10° SW visible
29 Oct 11.3 05:02:50 10° NNE 05:07:52 69° ESE 05:12:52 10° S visible
30 Oct 13.0 04:24:22 10° NE 04:28:36 27° E 04:32:48 10° SSE visible
30 Oct 11.9 06:02:58 10° N 06:07:18 29° WNW 06:11:36 10° SW visible
